| DS18B20 | SHTC3 | PZEM-004T | WiFi | ||||||||
|---|---|---|---|---|---|---|---|---|---|---|---|
| ID | Date d/m/Y & Time | data1 สูง | data2 ต่ำ | data3 นอก | temp pcb | hum pcb | Volt | Amp | Watt | rssi | Time |
| 14885 | 22/08/2026 06:55:03 | 29.3  | 29.5  | 26.7  | 30.3  | 67.8  | 230.6  | 0.04  | 4.6  | -75  | 06:55 |
| 14884 | 22/08/2026 06:50:20 | 29.3  | 29.5  | 26.7  | 30.1  | 67.8  | 231.2  | 0.04  | 4.6  | -76  | 06:50 |
| 14883 | 22/08/2026 06:45:36 | 29.3  | 29.5  | 26.5  | 30.3  | 67.8  | 230.8  | 0.04  | 4.6  | -74  | 06:45 |
| 14882 | 22/08/2026 06:40:53 | 29.3  | 29.5  | 26.4  | 30.2  | 68.0  | 230.7  | 0.04  | 4.6  | -76  | 06:40 |
| 14881 | 22/08/2026 06:36:10 | 29.3  | 29.6  | 26.5  | 30.2  | 67.8  | 230.1  | 0.04  | 4.6  | -76  | 06:36 |
| 14880 | 22/08/2026 06:31:27 | 29.3  | 29.6  | 26.6  | 30.2  | 67.9  | 231.9  | 0.04  | 4.6  | -75  | 06:31 |
| 14879 | 22/08/2026 06:26:44 | 29.4  | 29.6  | 26.8  | 30.4  | 67.9  | 230.8  | 0.04  | 4.6  | -76  | 06:26 |
| 14878 | 22/08/2026 06:22:01 | 29.4  | 29.6  | 26.7  | 30.3  | 67.8  | 231.7  | 0.04  | 4.6  | -77  | 06:22 |
| 14877 | 22/08/2026 06:17:17 | 29.4  | 29.6  | 26.7  | 30.4  | 67.9  | 230.7  | 0.04  | 4.6  | -73  | 06:17 |
| 14876 | 22/08/2026 06:12:34 | 29.4  | 29.6  | 26.7  | 30.4  | 67.8  | 231.5  | 0.04  | 4.6  | -78  | 06:12 |
| 14875 | 22/08/2026 06:07:50 | 29.4  | 29.6  | 26.5  | 30.4  | 67.8  | 230.6  | 0.04  | 4.6  | -75  | 06:07 |
| 14874 | 22/08/2026 06:03:07 | 29.4  | 29.7  | 26.5  | 30.2  | 67.8  | 228.2  | 0.04  | 4.6  | -77  | 06:03 |
| 14873 | 22/08/2026 05:58:23 | 29.5  | 29.7  | 26.8  | 30.5  | 67.6  | 229.2  | 0.04  | 4.6  | -75  | 05:58 |
| 14872 | 22/08/2026 05:53:39 | 29.5  | 29.7  | 26.8  | 30.6  | 67.5  | 231.2  | 0.04  | 4.6  | -75  | 05:53 |
| 14871 | 22/08/2026 05:48:56 | 29.5  | 29.8  | 27.0  | 30.7  | 67.3  | 231.8  | 0.04  | 4.6  | -76  | 05:48 |
| 14870 | 22/08/2026 05:44:13 | 29.6  | 29.8  | 26.9  | 30.7  | 67.2  | 231.7  | 0.04  | 4.6  | -78  | 05:44 |
| 14869 | 22/08/2026 05:39:36 | 29.6  | 29.8  | 26.7  | 30.6  | 67.6  | 230.8  | 0.04  | 4.5  | -79  | 05:39 |
| 14868 | 22/08/2026 05:32:21 | 29.6  | 29.8  | 26.8  | 30.4  | 67.8  | 231.5  | 0.04  | 4.6  | -75  | 05:32 |
| 14867 | 22/08/2026 05:27:38 | 29.6  | 29.8  | 26.9  | 30.4  | 67.8  | 230.1  | 0.04  | 4.6  | -76  | 05:27 |
| 14866 | 22/08/2026 05:22:55 | 29.6  | 29.8  | 26.7  | 30.5  | 67.8  | 230.2  | 0.04  | 4.6  | -75  | 05:22 |
| 14865 | 22/08/2026 05:18:11 | 29.6  | 29.9  | 26.6  | 30.5  | 67.9  | 229.4  | 0.04  | 4.6  | -75  | 05:18 |
| 14864 | 22/08/2026 05:13:28 | 29.7  | 29.9  | 26.4  | 30.6  | 68.0  | 230.9  | 0.04  | 4.6  | -75  | 05:13 |
| 14863 | 22/08/2026 05:08:44 | 29.7  | 29.9  | 26.5  | 30.7  | 67.8  | 229.1  | 0.04  | 4.6  | -76  | 05:08 |
| 14862 | 22/08/2026 05:04:01 | 29.7  | 29.9  | 26.9  | 30.5  | 67.8  | 231.5  | 0.04  | 4.6  | -78  | 05:04 |